Kodiak, AK

5:03 PM AKDT on October 22, 2017 (GMT -0800)
Kodiak

Weather History for PADQ - October, 2013

Change the Weather History Date:

Tuesday, October 8, 2013

  Actual Average Record
Temperature  
Mean Temperature 51 °F 43 °F  
Max Temperature 54 °F 49 °F 60 °F (1978)
Min Temperature 47 °F 37 °F 25 °F (2007)
Degree Days  
Heating Degree Days 14 22  
Month to date heating degree days 159 171  
Since 1 July heating degree days 1078 1272  
Cooling Degree Days 0 0  
Month to date cooling degree days 0 0  
Year to date cooling degree days 6 1  
Moisture  
Dew Point 40 °F    
Average Humidity 0    
Maximum Humidity 0    
Minimum Humidity 0    
Precipitation  
Precipitation 0.04 in 0.28 in 2.37 in (1943)
Month to date precipitation 2.25 2.24  
Year to date precipitation 49.70 56.38  
Snow  
Snow 0.00 in 0.00 in - ()
Month to date snowfall 0.0 0.0  
Since 1 July snowfall 0.0 0.0  
Since 1 September snowfall 0.0 0.0  
Snow Depth 0.00 in    
Sea Level Pressure  
Sea Level Pressure 29.31 in    
Wind  
Wind Speed 14 mph (SW)    
Max Wind Speed 32 mph    
Max Gust Speed 45 mph    
Visibility 10 miles    
Events Rain    
T = Trace of Precipitation, MM = Missing Value Source: NWS Daily Summary

Daily Weather History Graph

Daily Weather History Graph

Search for Another Location

Airport or City:

Trip Planner

Search our weather history database for the weather conditions in past years. The results will help you decide how hot, cold, wet, or windy it might be!

Date:

Astronomy

Oct. 08, 2013 Rise Set
Actual Time 8:30 AM AKDT 7:23 PM AKDT
Civil Twilight 7:51 AM AKDT 8:02 PM AKDT
Nautical Twilight 7:06 AM AKDT 8:47 PM AKDT
Astronomical Twilight 6:19 AM AKDT 9:33 PM AKDT
Moon 1:26 PM AKDT (10/8) 9:18 PM AKDT (10/8)
Length of Visible Light 12h 11m
Length of Day
10h 53m
Waxing Crescent, 17% of the Moon is Illuminated
Oct 8
Waxing Crescent
Oct 11
First Quarter
Oct 18
Full
Oct 26
Last Quarter
Nov 3
New

Hourly Weather History & Observations

Time (AKDT) Temp. Dew Point Humidity Pressure Visibility Wind Dir Wind Speed Gust Speed Precip Events Conditions
12:27 AM 51.8 °F 46.4 °F 82% 29.55 in 10.0 mi SE 16.1 mph 25.3 mph 0.00 in Rain Light Rain
12:53 AM 51.1 °F 48.0 °F 89% 29.53 in 7.0 mi SSE 18.4 mph 23.0 mph 0.01 in Rain Light Rain
1:53 AM 51.1 °F 46.9 °F 86% 29.49 in 10.0 mi SSE 15.0 mph 24.2 mph 0.01 in Rain Light Rain
2:53 AM 51.1 °F 46.0 °F 83% 29.44 in 10.0 mi SSE 5.8 mph - 0.00 in Rain Light Rain
3:10 AM 51.8 °F 46.4 °F 82% 29.43 in 10.0 mi South 12.7 mph - 0.00 in   Overcast
3:53 AM 51.1 °F 46.9 °F 86% 29.39 in 10.0 mi SSE 3.5 mph - 0.01 in Rain Light Rain
4:53 AM 53.1 °F 46.0 °F 77% 29.36 in 10.0 mi SSE 10.4 mph - 0.01 in Rain Light Rain
5:53 AM 52.0 °F 46.9 °F 83% 29.33 in 10.0 mi SSW 8.1 mph - 0.00 in Rain Light Rain
6:53 AM 53.1 °F 46.9 °F 80% 29.30 in 10.0 mi SSW 11.5 mph 19.6 mph 0.00 in   Overcast
7:53 AM 53.1 °F 46.9 °F 80% 29.29 in 10.0 mi SW 11.5 mph - 0.00 in Rain Light Rain
8:53 AM 52.0 °F 46.9 °F 83% 29.26 in 10.0 mi South 16.1 mph 19.6 mph 0.01 in   Overcast
9:53 AM 52.0 °F 46.9 °F 83% 29.24 in 10.0 mi South 9.2 mph - N/A   Overcast
10:53 AM 53.1 °F 46.9 °F 80% 29.23 in 10.0 mi SSW 10.4 mph - N/A   Overcast
11:53 AM 53.1 °F 46.9 °F 80% 29.22 in 10.0 mi SSW 12.7 mph - N/A   Overcast
12:53 PM 48.0 °F 43.0 °F 83% 29.23 in 3.0 mi NW 20.7 mph 28.8 mph 0.00 in Rain Light Rain
12:58 PM 48.2 °F 42.8 °F 82% 29.23 in 7.0 mi WNW 17.3 mph 28.8 mph 0.00 in Rain Light Rain
1:53 PM 48.0 °F 39.0 °F 71% 29.25 in 10.0 mi WNW 17.3 mph 24.2 mph 0.00 in   Overcast
2:53 PM 51.1 °F 30.9 °F 46% 29.23 in 10.0 mi West 16.1 mph 27.6 mph 0.00 in   Mostly Cloudy
3:53 PM 52.0 °F 26.1 °F 37% 29.22 in 10.0 mi WSW 15.0 mph 39.1 mph N/A   Mostly Cloudy
4:53 PM 51.1 °F 28.9 °F 43% 29.25 in 10.0 mi WSW 11.5 mph 16.1 mph N/A   Scattered Clouds
5:53 PM 51.1 °F 30.0 °F 44% 29.27 in 10.0 mi SW 13.8 mph 32.2 mph N/A   Scattered Clouds
6:53 PM 48.9 °F 32.0 °F 52% 29.28 in 10.0 mi West 27.6 mph 34.5 mph 0.00 in Rain Light Rain
7:53 PM 46.9 °F 34.0 °F 61% 29.29 in 10.0 mi SW 13.8 mph 21.9 mph 0.00 in   Mostly Cloudy
8:53 PM 48.9 °F 32.0 °F 52% 29.29 in 10.0 mi West 20.7 mph 27.6 mph N/A   Mostly Cloudy
9:53 PM 48.0 °F 33.1 °F 56% 29.30 in 10.0 mi WSW 23.0 mph 38.0 mph 0.00 in   Mostly Cloudy
10:53 PM 48.9 °F 30.9 °F 50% 29.30 in 10.0 mi West 16.1 mph 38.0 mph 0.00 in   Mostly Cloudy
11:53 PM 48.0 °F 30.0 °F 50% 29.35 in 10.0 mi WSW 13.8 mph 39.1 mph N/A   Scattered Clouds